Location: Peebles
(55.6412°N, 3.1714°W)
Time: 13:48:23
(UTC+00:00)

RS-15 - Pass Details

Date: 29 November 2023
Orbit: 1893 x 2151 km, 64.8° (Epoch: 02 March)

Event Time Altitude Azimuth Distance (km) Brightness Sun altitude
Exits shadow 23:07:53 18° 49° (NE) 3,850 9.6 -54.5°
Drops below altitude 10° 23:09:59 10° 49° (NE) 4,456 10.0 -54.6°
Sets 23:13:14 0° 50° (NE) 5,426 10.5 -54.8°
